DW5988 Weather Reports


Display with metric or nautical units.
time (UTC)temp
F
wind
direction
speed
MPH
gust
MPH
rain 1hr
in
rain 24hr
in
rain mn
in
humidity
%
barometer
mb
20260507142803 53 278 10.0 15.0 0.00 0.00 0.00 64 1008.3
20260507141804 51 277 10.0 14.0 0.00 0.00 0.00 66 1008.1
20260507141304 51 271 10.0 17.0 0.00 0.00 0.00 66 1008.1
20260507140804 51 267 12.0 18.0 0.00 0.00 0.00 67 1008.2
20260507135804 51 269 12.0 17.0 0.00 0.00 0.00 67 1008.0
20260507133803 50 269 9.0 16.0 0.00 0.00 0.00 69 1008.0
20260507133304 50 265 9.0 13.0 0.00 0.00 0.00 69 1008.1
20260507132804 50 281 10.0 16.0 0.00 0.00 0.00 69 1008.1
20260507132307 50 274 10.0 17.0 0.00 0.00 0.00 70 1008.1
20260507131804 50 276 11.0 14.0 0.00 0.00 0.00 70 1008.0
20260507131304 50 265 10.0 14.0 0.00 0.00 0.00 70 1008.0
20260507130304 49 269 9.0 13.0 0.00 0.00 0.00 72 1008.0
20260507125803 49 263 10.0 12.0 0.00 0.00 0.00 73 1007.8
20260507125306 49 265 8.0 12.0 0.00 0.00 0.00 73 1007.7
20260507123804 48 262 9.0 13.0 0.00 0.00 0.00 74 1007.8
20260507120804 47 291 5.0 8.0 0.00 0.00 0.00 74 1007.9
20260507120304 47 291 6.0 8.0 0.00 0.00 0.00 74 1007.9
20260507115804 47 282 8.0 10.0 0.00 0.00 0.00 75 1007.8
20260507115307 46 282 7.0 10.0 0.00 0.00 0.00 75 1007.7
20260507114803 46 277 6.0 7.0 0.00 0.00 0.00 74 1007.7
20260507111804 47 301 3.0 8.0 0.00 0.00 0.00 72 1007.7
20260507111304 47 283 7.0 9.0 0.00 0.00 0.00 73 1007.7
20260507110803 47 273 8.0 10.0 0.00 0.00 0.00 73 1007.6
20260507110304 47 278 7.0 9.0 0.00 0.00 0.00 73 1007.7
20260507105306 46 285 7.0 9.0 0.00 0.00 0.00 73 1007.6
20260507104804 46 271 6.0 9.0 0.00 0.00 0.00 73 1007.6
20260507103804 44 268 6.0 8.0 0.00 0.00 0.00 72 1007.6
20260507103304 44 276 4.0 7.0 0.00 0.00 0.00 70 1007.5
20260507102804 44 278 3.0 6.0 0.00 0.00 0.00 69 1007.5
20260507102306 43 277 2.0 3.0 0.00 0.00 0.00 69 1007.6
20260507101804 43 277 1.0 2.0 0.00 0.00 0.00 67 1007.7
20260507101304 43 276 1.0 2.0 0.00 0.00 0.00 67 1007.7
20260507095803 43 275 2.0 3.0 0.00 0.00 0.00 68 1007.6
20260507095306 43 267 1.0 3.0 0.00 0.00 0.00 67 1007.6
20260507093304 41 215 0.0 2.0 0.00 0.00 0.00 62 1007.7
20260507092804 41 215 2.0 2.0 0.00 0.00 0.00 61 1007.6
20260507092307 41 215 1.0 3.0 0.00 0.00 0.00 60 1007.6
20260507091804 41 215 1.0 2.0 0.00 0.00 0.00 60 1007.6
20260507090803 41 215 5.0 6.0 0.00 0.00 0.00 60 1007.5
20260507090304 41 219 3.0 6.0 0.00 0.00 0.00 62 1007.5
20260507085803 40 227 5.0 6.0 0.00 0.00 0.00 64 1007.4
20260507085306 40 219 3.0 6.0 0.00 0.00 0.00 65 1007.4
20260507084803 40 189 5.0 6.0 0.00 0.00 0.00 65 1007.4
20260507083303 41 181 3.0 6.0 0.00 0.00 0.00 64 1007.5
20260507080304 43 158 3.0 7.0 0.00 0.00 0.00 62 1007.3
20260507074803 44 157 5.0 6.0 0.00 0.00 0.00 61 1007.2
20260507073803 44 128 3.0 3.0 0.00 0.00 0.00 58 1007.5
20260507072307 46 3 0.0 5.0 0.00 0.00 0.00 55 1007.7
20260507071805 46 158 5.0 5.0 0.00 0.00 0.00 55 1007.4
20260507064804 48 157 6.0 10.0 0.00 0.00 0.00 48 1007.6
20260507064304 48 153 7.0 12.0 0.00 0.00 0.00 47 1007.6
20260507062803 46 115 2.0 3.0 0.00 0.00 0.00 57 1007.9
20260507061803 47 104 2.0 3.0 0.00 0.00 0.00 55 1008.0
20260507060825 46 104 2.0 3.0 0.00 0.00 0.00 55 1008.0
20260507055804 46 104 1.0 3.0 0.00 0.00 0.00 59 1007.9
20260507055306 46 104 2.0 3.0 0.00 0.00 0.00 57 1007.8
20260507054804 46 104 1.0 3.0 0.00 0.00 0.00 55 1007.7
20260507053804 47 104 1.0 3.0 0.00 0.00 0.00 55 1007.7
20260507053303 47 104 1.0 2.0 0.00 0.00 0.00 55 1007.7
20260507051303 47 137 5.0 5.0 0.00 0.00 0.00 56 1007.3
20260507050304 48 137 2.0 3.0 0.00 0.00 0.00 57 1007.4
20260507045306 48 137 3.0 5.0 0.00 0.00 0.00 55 1007.1
20260507044803 48 137 2.0 3.0 0.00 0.00 0.00 55 1007.0
20260507044304 48 137 3.0 7.0 0.00 0.00 0.00 54 1007.0
20260507043304 49 138 5.0 5.0 0.00 0.00 0.00 52 1007.0
20260507041303 49 121 6.0 8.0 0.00 0.00 0.00 52 1006.9
20260507040804 49 103 3.0 6.0 0.00 0.00 0.00 53 1006.9
20260507040304 50 103 4.0 6.0 0.00 0.00 0.00 53 1006.9
20260507035803 50 103 3.0 8.0 0.00 0.00 0.00 52 1006.8
20260507034304 52 146 5.0 10.0 0.00 0.00 0.00 48 1006.5
20260507033804 51 168 7.0 12.0 0.00 0.00 0.00 47 1006.4
20260507033303 51 170 7.0 9.0 0.00 0.00 0.00 49 1006.5
20260507032306 52 162 4.0 6.0 0.00 0.00 0.00 46 1006.7
20260507030803 53 110 6.0 7.0 0.00 0.00 0.00 41 1007.0
20260507030304 53 101 4.0 6.0 0.00 0.00 0.00 41 1006.9
20260507025804 54 99 5.0 7.0 0.00 0.00 0.00 41 1006.7
20260507024803 54 98 2.0 3.0 0.00 0.00 0.00 41 1006.7
20260507023803 55 102 6.0 8.0 0.00 0.00 0.00 39 1006.4
20260507022804 55 103 6.0 9.0 0.00 0.00 0.00 39 1006.5
20260507021804 56 102 6.0 8.0 0.00 0.00 0.00 38 1006.2
20260507021303 56 105 4.0 7.0 0.00 0.00 0.00 38 1006.1
20260507020804 56 90 4.0 7.0 0.00 0.00 0.00 37 1006.2
20260507013303 59 105 6.0 8.0 0.00 0.00 0.00 33 1006.1
20260507012306 59 108 9.0 12.0 0.00 0.00 0.00 32 1005.9
20260507011804 60 110 7.0 10.0 0.00 0.00 0.00 32 1006.1
20260507011304 60 107 9.0 12.0 0.00 0.00 0.00 31 1006.1
20260507010804 60 113 8.0 12.0 0.00 0.00 0.00 32 1006.0
20260507010304 60 117 9.0 12.0 0.00 0.00 0.00 31 1006.0
20260507003304 60 100 6.0 12.0 0.00 0.00 0.00 31 1005.8
20260507001304 61 111 10.0 15.0 0.00 0.00 0.00 30 1005.8
20260507000804 61 107 10.0 14.0 0.00 0.00 0.00 29 1005.9
20260507000306 61 91 4.0 8.0 0.00 0.00 0.00 29 1005.9
20260506235804 61 138 5.0 12.0 0.00 0.00 0.00 29 1005.8
20260506234305 61 117 5.0 12.0 0.00 0.00 0.00 29 1005.7
20260506233803 61 96 5.0 10.0 0.00 0.00 0.00 29 1005.8
20260506233304 61 111 10.0 13.0 0.00 0.00 0.00 29 1005.8
20260506232306 62 80 4.0 10.0 0.00 0.00 0.00 29 1006.0
20260506230304 61 113 7.0 10.0 0.00 0.00 0.00 29 1006.4
20260506225305 62 118 9.0 13.0 0.00 0.00 0.00 29 1006.3
20260506222803 61 109 5.0 12.0 0.00 0.00 0.00 28 1006.6
20260506221303 63 139 3.0 13.0 0.00 0.00 0.00 27 1006.7
20260506220803 63 134 6.0 10.0 0.00 0.00 0.00 27 1006.7
20260506214804 63 147 4.0 8.0 0.00 0.00 0.00 27 1007.0
20260506214304 62 160 6.0 9.0 0.00 0.00 0.00 28 1007.2
20260506212803 62 170 7.0 14.0 0.00 0.00 0.00 28 1007.3
20260506205306 60 161 7.0 18.0 0.00 0.00 0.00 28 1007.6
20260506204804 60 158 9.0 15.0 0.00 0.00 0.00 29 1007.6
20260506204304 60 108 9.0 22.0 0.00 0.00 0.00 28 1007.7
20260506202804 60 157 10.0 20.0 0.00 0.00 0.00 28 1007.8
20260506201304 60 149 9.0 13.0 0.00 0.00 0.00 29 1008.1
20260506200804 59 101 7.0 10.0 0.00 0.00 0.00 28 1008.1
20260506200304 59 158 10.0 15.0 0.00 0.00 0.00 29 1008.1
20260506194804 59 154 8.0 14.0 0.00 0.00 0.00 29 1008.2
20260506194304 59 167 7.0 20.0 0.00 0.00 0.00 30 1008.3
20260506192804 58 169 7.0 12.0 0.00 0.00 0.00 29 1008.4
20260506191804 58 164 5.0 14.0 0.00 0.00 0.00 31 1008.6
20260506185803 57 150 9.0 14.0 0.00 0.00 0.00 30 1008.8
20260506184804 56 154 10.0 15.0 0.00 0.00 0.00 31 1009.0
20260506183304 56 155 9.0 15.0 0.00 0.00 0.00 31 1009.2
20260506181804 55 165 8.0 13.0 0.00 0.00 0.00 34 1009.5
20260506180804 54 159 9.0 14.0 0.00 0.00 0.00 34 1009.6
20260506174804 54 164 10.0 14.0 0.00 0.00 0.00 35 1009.7
20260506174304 53 164 8.0 15.0 0.00 0.00 0.00 37 1009.8
20260506172306 53 163 9.0 14.0 0.00 0.00 0.00 37 1010.2
20260506171803 52 147 9.0 18.0 0.00 0.00 0.00 37 1010.3
20260506165804 51 151 7.0 14.0 0.00 0.00 0.00 40 1010.4
20260506164304 50 160 11.0 15.0 0.00 0.00 0.00 39 1010.6
20260506163803 50 157 10.0 15.0 0.00 0.00 0.00 39 1010.7
20260506162804 49 159 12.0 16.0 0.00 0.00 0.00 41 1010.6
20260506162307 49 156 12.0 15.0 0.00 0.00 0.00 41 1010.8
20260506160304 49 167 11.0 16.0 0.00 0.00 0.00 41 1011.0
20260506154304 47 144 9.0 14.0 0.00 0.00 0.00 49 1011.3
20260506153804 46 146 8.0 12.0 0.00 0.00 0.00 50 1011.4
20260506153304 45 155 9.0 13.0 0.00 0.00 0.00 51 1011.5
20260506152306 45 160 9.0 12.0 0.00 0.00 0.00 55 1011.7
20260506151803 44 156 8.0 13.0 0.00 0.00 0.00 57 1011.8
20260506150803 43 151 9.0 13.0 0.00 0.00 0.00 59 1011.9
20260506150305 42 157 9.0 12.0 0.00 0.00 0.00 61 1011.7
20260506145305 40 142 8.0 12.0 0.00 0.00 0.00 65 1012.0
20260506144804 39 147 6.0 12.0 0.00 0.00 0.00 67 1012.1
20260506144304 38 149 7.0 12.0 0.00 0.00 0.00 68 1012.1
20260506143303 37 150 7.0 10.0 0.00 0.00 0.00 69 1012.3